Date,TemperatureHighF,TemperatureAvgF,TemperatureLowF,DewpointHighF,DewpointAvgF,DewpointLowF,HumidityHigh,HumidityAvg,HumidityLow,PressureMaxIn,PressureMinIn,WindSpeedMaxMPH,WindSpeedAvgMPH,GustSpeedMaxMPH,PrecipitationSumIn
2013-8-1,90,78,62,48,40,33,53,28,14,0.00,40.00,6,4,17,0.00
2013-8-2,90,77,61,41,34,26,39,23,12,0.00,40.00,6,4,14,0.00
2013-8-3,95,81,66,43,35,30,30,20,13,0.00,40.00,8,4,15,0.00
2013-8-4,96,81,68,45,39,35,33,24,15,0.00,40.00,8,4,14,0.00
2013-8-5,94,80,66,46,42,38,35,27,17,0.00,40.00,7,4,15,0.00
2013-8-6,94,80,65,48,43,35,46,29,16,0.00,40.00,7,4,14,0.00
2013-8-7,88,74,60,52,43,35,46,33,21,0.00,40.00,7,4,16,0.00
2013-8-8,87,73,60,54,48,42,58,42,24,0.00,40.00,7,4,14,0.00
2013-8-9,88,75,61,51,48,46,58,40,24,0.00,40.00,8,4,14,0.00
2013-8-10,88,77,62,52,47,44,53,36,23,0.00,40.00,7,4,15,0.00
2013-8-11,90,77,64,54,48,44,49,37,23,0.00,40.00,7,4,18,0.00
2013-8-12,93,79,66,50,48,45,51,36,20,0.00,40.00,8,4,14,0.00
2013-8-13,96,81,67,49,45,-100,49,31,17,0.00,40.00,7,4,15,0.00
2013-8-14,99,85,69,50,42,-100,46,27,13,0.00,40.00,7,4,14,0.00
2013-8-15,98,79,70,47,35,-100,39,25,15,0.00,40.00,7,4,13,0.00
2013-8-16,98,82,72,53,43,-100,37,28,18,0.00,40.00,7,4,13,0.00
2013-8-17,98,84,72,53,46,-100,42,29,15,0.00,40.00,6,4,17,0.00
2013-8-18,94,83,70,62,50,46,56,33,23,0.00,40.00,6,4,14,0.00
2013-8-19,105,82,75,65,50,-100,57,39,19,0.00,40.00,19,7,34,0.01
2013-8-20,101,85,72,56,52,45,55,35,20,0.00,40.00,6,4,13,0.01
2013-8-21,98,83,69,55,49,45,52,33,21,0.00,40.00,6,4,12,0.00
2013-8-22,98,84,70,52,46,37,47,28,17,0.00,40.00,6,4,13,0.00
2013-8-23,92,79,65,52,46,37,45,33,22,0.00,40.00,6,4,13,0.00
2013-8-24,94,79,67,50,45,-100,50,33,16,0.00,40.00,7,4,15,0.00
2013-8-25,93,78,64,53,46,41,43,33,19,0.00,40.00,7,4,13,0.00
2013-8-26,92,79,65,55,49,41,49,36,26,0.00,40.00,7,4,12,0.00
2013-8-27,91,76,70,57,54,52,58,48,29,0.00,40.00,6,3,10,0.00
2013-8-28,96,88,76,53,51,48,44,29,22,0.00,40.00,6,5,13,0.00
2013-8-29,96,83,71,57,54,52,55,39,26,0.00,40.00,6,4,13,0.00
2013-8-30,95,83,71,58,54,51,59,40,24,0.00,40.00,7,4,14,0.00
2013-8-31,97,84,75,57,50,-100,48,32,19,0.00,40.00,8,4,14,0.00